User: anonymous   Login
Location: Baix
(44.7118°N, 4.7648°E)
Time: 12:10:03
(UTC+00:00)
Language:

Resurs 1-4 Rocket - Orbit

View from above orbital plane
View from above orbital plane
View from above satellite
View from above satellite

Ground track
Ground track

The orbit data is extracted from the following two-line orbital elements,

1 25400U 98043G   20296.41181457 -.00000003 +00000-0 +17336-4 0  9993
2 25400 098.6155 230.0371 0009404 331.0905 028.9752 14.25462606159106
Epoch (UTC): 22 October 2020 09:53:00
Eccentricity: 0.0009404
inclination: 98.6155°
perigee height: 800 km
apogee height: 813 km
right ascension of ascending node: 230.0371°
argument of perigee: 331.0905°
revolutions per day: 14.25462606
mean anomaly at epoch: 28.9752°
orbit number at epoch: 15910

The dashed part of the orbit path shows where the satellite is in the earth's shadow,  

DLR